Location: *
(58.7167°N, 26.1833°E)
Time: 14:31:57
(UTC+00:00)

S3M - Pass Details

Date: 25 August 2019
Orbit: 948 x 1005 km, 83.0° (Epoch: 19 September)

Event Time Altitude Azimuth Distance (km) Brightness Sun altitude
Rises 18:34:52 0° 187° (S) 3,680 6.7 -7.5°
Reaches altitude 10° 18:37:23 10° 187° (S) 2,728 6.1 -7.7°
Maximum altitude 18:43:39 84° 100° (E) 983 4.0 -8.4°
Drops below altitude 10° 18:49:51 10° 14° (NNE) 2,707 6.7 -9.0°
Sets 18:52:21 0° 14° (NNE) 3,651 7.4 -9.3°
